Weather History for Ravenna, OH

Change the Weather History Date:

Wednesday, December 7, 2011

  Actual Average (KCAK) Record (KCAK)
Temperature  
Mean Temperature 33 °F 33 °F  
Max Temperature 37 °F 40 °F 66 °F (1998)
Min Temperature 29 °F 27 °F 3 °F (1958)
Degree Days  
Heating Degree Days 32 32  
Month to date heating degree days 216  
Since 1 July heating degree days 1475  
Cooling Degree Days 0 0  
Month to date cooling degree days 0  
Year to date cooling degree days 652  
Moisture  
Dew Point 31 °F    
Average Humidity 92    
Maximum Humidity 100    
Minimum Humidity 74    
Precipitation  
Precipitation 0.01 in 0.10 in 0.90 in (1950)
Month to date precipitation 0.69  
Year to date precipitation 37.47  
Snow  
Snow - 0.30 in - ()
Month to date snowfall 1.8  
Since 1 July snowfall 5.2  
Snow Depth -    
Sea Level Pressure  
Sea Level Pressure 29.93 in    
Wind  
Wind Speed 5 mph ()    
Max Wind Speed 13 mph    
Max Gust Speed 20 mph    
Visibility 8.3 miles    
Events Rain , Snow    
T = Trace of Precipitation, MM = Missing Value Source: Averaged Metar Reports

Daily Weather History Graph

Daily Weather History Graph

Search for Another Location

Airport:

Trip Planner

Search our weather history database for the weather conditions in past years. The results will help you decide how hot, cold, wet, or windy it might be!

Date:

Astronomy

Dec. 07, 2011 Rise Set
Actual Time 7:36 AM EST 4:55 PM EST
Civil Twilight 7:05 AM EST 5:26 PM EST
Nautical Twilight 6:31 AM EST 6:01 PM EST
Astronomical Twilight 5:57 AM EST 6:34 PM EST
Moon 2:56 PM EST (12/7) 4:50 AM EST (12/7)
Length of Visible Light 10h 21m
Length of Day
9h 19m
Waxing Gibbous, 92% of the Moon is Illuminated
Dec 7
Waxing Gibbous
Dec 10
Full
Dec 17
Last Quarter
Dec 24
New
Jan 1
First Quarter

Hourly Weather History & Observations

Time (EST) Temp. Windchill Dew Point Humidity Pressure Visibility Wind Dir Wind Speed Gust Speed Precip Events Conditions
12:19 AM 37.8 °F 35.3 °F 37.8 °F 100% 30.02 in 10.0 mi WNW 3.5 mph - N/A   Overcast
12:39 AM 37.9 °F 33.5 °F 37.8 °F 99% 30.03 in 10.0 mi WNW 5.8 mph - N/A   Overcast
12:59 AM 37.6 °F 35.1 °F 37.8 °F 100% 30.01 in 4.0 mi WNW 3.5 mph - N/A   Overcast
1:19 AM 37.4 °F 34.9 °F 37.4 °F 100% 30.00 in 4.0 mi WNW 3.5 mph - N/A   Drizzle
1:39 AM 37.4 °F - 37.4 °F 100% 30.00 in 1.5 mi Calm Calm - N/A Rain Light Rain
1:58 AM 37.4 °F 33.8 °F 37.4 °F 100% 29.99 in 2.0 mi NNW 4.6 mph - N/A   Overcast
2:19 AM 37.4 °F 33.8 °F 37.4 °F 100% 29.99 in 1.5 mi NW 4.6 mph - N/A   Overcast
2:39 AM 37.4 °F 33.8 °F 37.4 °F 100% 29.97 in 2.0 mi NNW 4.6 mph - N/A   Overcast
2:59 AM 37.0 °F 32.4 °F 37.2 °F 100% 29.98 in 1.5 mi North 5.8 mph - N/A Rain Light Rain
3:19 AM 36.0 °F 29.0 °F 36.1 °F 100% 29.96 in 2.5 mi NNW 9.2 mph - N/A Rain Light Rain
3:39 AM 35.8 °F 30.9 °F 36.0 °F 100% 29.98 in 10.0 mi NNW 5.8 mph - N/A   Overcast
4:19 AM 35.1 °F 28.6 °F 35.2 °F 100% 29.96 in 10.0 mi North 8.1 mph - N/A   Overcast
4:38 AM 34.7 °F - 34.5 °F 99% 29.94 in 10.0 mi Calm Calm - N/A   Overcast
4:59 AM 34.7 °F 31.8 °F 34.2 °F 98% 29.95 in 10.0 mi NNE 3.5 mph - N/A   Overcast
5:19 AM 34.7 °F 30.6 °F 34.2 °F 98% 29.95 in 10.0 mi North 4.6 mph - N/A   Overcast
5:39 AM 34.7 °F - 34.0 °F 97% 29.97 in 10.0 mi Calm Calm - N/A   Overcast
5:59 AM 34.5 °F 30.4 °F 34.5 °F 100% 29.95 in 10.0 mi NW 4.6 mph - N/A   Overcast
6:19 AM 34.3 °F 31.4 °F 34.0 °F 99% 29.95 in 10.0 mi NNW 3.5 mph - N/A   Overcast
6:39 AM 34.2 °F 30.0 °F 34.2 °F 100% 29.95 in 10.0 mi NW 4.6 mph - N/A   Overcast
7:19 AM 34.2 °F 30.0 °F 33.8 °F 99% 29.93 in 10.0 mi North 4.6 mph - N/A   Overcast
7:38 AM 34.2 °F 31.2 °F 33.3 °F 97% 29.93 in 10.0 mi North 3.5 mph - N/A   Overcast
8:19 AM 34.3 °F 31.4 °F 33.1 °F 95% 29.96 in 10.0 mi NW 3.5 mph - N/A   Overcast
8:39 AM 34.5 °F 31.6 °F 33.8 °F 97% 29.94 in 10.0 mi NNW 3.5 mph - N/A   Overcast
8:59 AM 34.7 °F 29.6 °F 33.8 °F 97% 29.93 in 10.0 mi NNW 5.8 mph - N/A   Overcast
9:19 AM 34.9 °F 30.8 °F 33.4 °F 94% 29.94 in 10.0 mi NNW 4.6 mph - N/A   Overcast
9:39 AM 34.9 °F 29.9 °F 33.4 °F 94% 29.94 in 10.0 mi NNW 5.8 mph - N/A   Overcast
9:59 AM 34.9 °F 32.0 °F 33.8 °F 96% 29.95 in 10.0 mi North 3.5 mph - N/A Rain Light Rain
10:19 AM 35.1 °F 31.0 °F 33.6 °F 94% 29.94 in 10.0 mi NNW 4.6 mph - N/A   Overcast
10:39 AM 35.1 °F - 33.3 °F 93% 29.94 in 10.0 mi Calm Calm - N/A   Overcast
10:59 AM 35.1 °F 32.2 °F 33.1 °F 92% 29.93 in 10.0 mi NNW 3.5 mph - N/A   Overcast
11:19 AM 35.2 °F 32.4 °F 33.1 °F 92% 29.91 in 10.0 mi NNW 3.5 mph - N/A   Overcast
11:39 AM 35.2 °F 29.5 °F 33.3 °F 92% 29.90 in 10.0 mi NNW 6.9 mph - N/A   Overcast
11:59 AM 35.2 °F 31.2 °F 33.4 °F 93% 29.90 in 10.0 mi North 4.6 mph - N/A   Overcast
12:19 PM 34.9 °F 30.8 °F 33.4 °F 94% 29.88 in 10.0 mi NNW 4.6 mph - N/A   Overcast
12:39 PM 34.9 °F 32.0 °F 33.6 °F 95% 29.88 in 10.0 mi NNW 3.5 mph - N/A   Overcast
12:59 PM 33.4 °F - 33.6 °F 100% 29.88 in 1.5 mi Calm Calm - N/A Snow Light Snow
1:19 PM - - - N/A% 29.85 in 10.0 mi Calm Calm - N/A Rain Light Rain
1:39 PM 34.7 °F 30.6 °F 34.7 °F 100% 29.86 in 5.0 mi NW 4.6 mph - N/A Snow Snow
1:58 PM 33.3 °F 30.2 °F 33.6 °F 100% 29.86 in 2.5 mi NW 3.5 mph - 0.01 in Snow Light Snow
1:59 PM 33.4 °F 29.1 °F 33.6 °F 100% 29.86 in 2.5 mi NNW 4.6 mph - 0.01 in Snow Light Snow
2:19 PM - - - N/A% 29.85 in 7.0 mi NW 5.8 mph - N/A   Light Drizzle
2:39 PM 33.8 °F 26.4 °F 34.0 °F 100% 29.83 in 5.0 mi NW 9.2 mph - N/A Snow Light Snow
2:59 PM 33.6 °F 26.2 °F 33.6 °F 100% 29.83 in 4.0 mi NW 9.2 mph - N/A Snow Light Snow
3:19 PM 32.9 °F 24.1 °F 32.9 °F 100% 29.84 in 1.5 mi WNW 11.5 mph 18.4 mph N/A Snow Light Snow
3:39 PM 32.0 °F 25.6 °F 32.0 °F 100% 29.85 in 3.0 mi NW 6.9 mph - N/A Snow Light Snow
3:59 PM 32.0 °F 23.6 °F 30.9 °F 96% 29.87 in 7.0 mi NW 10.4 mph - N/A   Overcast
4:19 PM 32.0 °F 25.6 °F 30.0 °F 92% 29.87 in 10.0 mi WNW 6.9 mph - N/A   Overcast
4:39 PM 32.0 °F 23.6 °F 29.3 °F 90% 29.87 in 10.0 mi WNW 10.4 mph 16.1 mph N/A   Overcast
4:59 PM 31.8 °F 24.6 °F 28.2 °F 87% 29.89 in 10.0 mi WNW 8.1 mph 16.1 mph N/A   Overcast
5:19 PM 31.5 °F 22.9 °F 27.1 °F 84% 29.88 in 10.0 mi WNW 10.4 mph 19.6 mph N/A   Overcast
5:39 PM 31.5 °F 23.5 °F 26.2 °F 81% 29.90 in 10.0 mi WNW 9.2 mph - N/A   Overcast
5:59 PM 30.9 °F 23.5 °F 25.3 °F 80% 29.89 in 10.0 mi West 8.1 mph - N/A   Mostly Cloudy
6:19 PM 31.1 °F 23.7 °F 25.7 °F 80% 29.90 in 10.0 mi West 8.1 mph - N/A   Mostly Cloudy
6:39 PM 31.1 °F 22.4 °F 25.5 °F 80% 29.90 in 10.0 mi West 10.4 mph - N/A   Overcast
6:59 PM 31.5 °F 24.2 °F 25.2 °F 78% 29.91 in 10.0 mi West 8.1 mph - N/A   Overcast
7:19 PM 31.5 °F 22.9 °F 25.3 °F 78% 29.90 in 10.0 mi West 10.4 mph - N/A   Overcast
7:39 PM 31.5 °F 22.3 °F 25.3 °F 78% 29.92 in 10.0 mi West 11.5 mph - N/A   Overcast
7:58 PM 31.6 °F 22.6 °F 24.8 °F 76% 29.92 in 10.0 mi West 11.5 mph 16.1 mph N/A   Overcast
8:19 PM 31.1 °F 23.1 °F 24.1 °F 75% 29.92 in 10.0 mi West 9.2 mph - N/A   Overcast
8:38 PM 31.3 °F 23.3 °F 23.9 °F 74% 29.92 in 10.0 mi West 9.2 mph - N/A   Overcast
8:59 PM 31.1 °F 23.1 °F 24.3 °F 76% 29.92 in 10.0 mi West 9.2 mph - N/A   Overcast
9:19 PM 31.1 °F 23.1 °F 24.6 °F 77% 29.93 in 10.0 mi West 9.2 mph - N/A   Overcast
9:39 PM 30.7 °F 20.9 °F 24.8 °F 79% 29.93 in 10.0 mi West 12.7 mph 17.3 mph N/A   Mostly Cloudy
9:58 PM 30.4 °F 20.5 °F 25.5 °F 82% 29.94 in 10.0 mi West 12.7 mph 18.4 mph N/A   Scattered Clouds
10:19 PM 30.7 °F 22.6 °F 25.7 °F 82% 29.94 in 10.0 mi WSW 9.2 mph 16.1 mph N/A   Mostly Cloudy
10:39 PM 30.0 °F 21.1 °F 25.5 °F 83% 29.95 in 10.0 mi WSW 10.4 mph - N/A   Mostly Cloudy
10:59 PM 29.8 °F 20.9 °F 25.5 °F 84% 29.96 in 10.0 mi WSW 10.4 mph - N/A   Clear
11:19 PM 29.7 °F 21.3 °F 25.3 °F 84% 29.97 in 10.0 mi WSW 9.2 mph - N/A   Scattered Clouds
11:39 PM 29.8 °F 20.3 °F 25.2 °F 83% 29.97 in 10.0 mi WSW 11.5 mph 16.1 mph N/A   Mostly Cloudy
11:59 PM 30.0 °F 21.7 °F 24.6 °F 80% 29.97 in 10.0 mi WSW 9.2 mph - N/A   Overcast